SWA2117 KOKC-KDAL

Flight info

Callsign SWA2117
Flight time 1h 32m
Altitude 25000
Route KRMSN4 KRMSN AIRRE HIBIL3
Aircraft B737/M-SDE2E3FGHIRWXY/LB1

Departure

Time 2026-05-04 22:51
Airport OKC Will Rogers World Airport (KOKC)

Arrival

Time 2026-05-05 00:23
Airport Dallas Love Field (KDAL)
Time Latitude Longitude Altitude Speed Heading
2026-05-04 22:25 35.39455 -97.59657 1300 ft 0 kts 19°
2026-05-04 22:43 35.39448 -97.59660 1300 ft 4 kts 20°
2026-05-04 22:43 35.39423 -97.59670 1299 ft 4 kts 23°
2026-05-04 22:43 35.39403 -97.59686 1299 ft 4 kts 58°
2026-05-04 22:43 35.39398 -97.59709 1299 ft 1 kts 104°
2026-05-04 22:45 35.39370 -97.59577 1299 ft 14 kts 114°
2026-05-04 22:45 35.39287 -97.59517 1298 ft 15 kts 164°
2026-05-04 22:46 35.39217 -97.59505 1296 ft 11 kts 118°
2026-05-04 22:46 35.39216 -97.59365 1296 ft 22 kts 87°
2026-05-04 22:46 35.39221 -97.59170 1294 ft 24 kts 89°
2026-05-04 22:46 35.39269 -97.59060 1295 ft 11 kts 351°
2026-05-04 22:47 35.39348 -97.59062 1297 ft 13 kts 359°
2026-05-04 22:47 35.39462 -97.59064 1296 ft 22 kts 359°
2026-05-04 22:47 35.39624 -97.59065 1296 ft 23 kts 360°
2026-05-04 22:47 35.39767 -97.59070 1299 ft 20 kts
2026-05-04 22:48 35.39877 -97.59056 1297 ft 0 kts
2026-05-04 22:48 35.39882 -97.59055 1297 ft 2 kts
2026-05-04 22:48 35.39915 -97.59058 1296 ft 9 kts 355°
2026-05-04 22:48 35.39997 -97.59062 1295 ft 19 kts 359°
2026-05-04 22:49 35.40162 -97.59064 1298 ft 21 kts 359°
2026-05-04 22:49 35.40307 -97.59063 1296 ft 19 kts 360°
2026-05-04 22:49 35.40385 -97.59020 1296 ft 13 kts 65°
2026-05-04 22:49 35.40386 -97.58914 1299 ft 12 kts 120°
2026-05-04 22:50 35.40294 -97.58896 1299 ft 21 kts 179°
2026-05-04 22:50 35.39925 -97.58893 1296 ft 88 kts 182°
2026-05-04 22:50 35.39105 -97.58905 1300 ft 144 kts 183°
2026-05-04 22:50 35.38023 -97.58960 1539 ft 173 kts 186°
2026-05-04 22:51 35.37766 -97.58988 1621 ft 180 kts 185°
2026-05-04 22:51 35.36430 -97.59164 1943 ft 203 kts 189°
2026-05-04 22:51 35.34948 -97.59452 2172 ft 232 kts 191°
2026-05-04 22:52 35.33335 -97.59540 2919 ft 239 kts 175°
2026-05-04 22:52 35.31760 -97.58728 3640 ft 255 kts 150°
2026-05-04 22:52 35.30403 -97.57286 4486 ft 261 kts 144°
2026-05-04 22:52 35.29078 -97.55701 5150 ft 273 kts 143°
2026-05-04 22:53 35.27718 -97.54032 5847 ft 281 kts 142°
2026-05-04 22:53 35.26317 -97.52302 6521 ft 290 kts 142°
2026-05-04 22:53 35.24828 -97.50616 7296 ft 293 kts 146°
2026-05-04 22:53 35.23319 -97.48895 8093 ft 301 kts 142°
2026-05-04 22:54 35.21861 -97.47062 8955 ft 307 kts 140°
2026-05-04 22:54 35.20373 -97.45157 9810 ft 313 kts 140°
2026-05-04 22:54 35.18854 -97.43227 10614 ft 318 kts 140°
2026-05-04 22:54 35.17292 -97.41268 11303 ft 329 kts 140°
2026-05-04 22:55 35.15616 -97.39199 11532 ft 356 kts 140°
2026-05-04 22:55 35.13836 -97.37013 12103 ft 368 kts 140°
2026-05-04 22:55 35.12016 -97.34780 12905 ft 373 kts 140°
2026-05-04 22:55 35.10179 -97.32527 13759 ft 376 kts 140°
2026-05-04 22:56 35.08317 -97.30248 14514 ft 382 kts 140°
2026-05-04 22:56 35.06427 -97.27937 15289 ft 388 kts 140°
2026-05-04 22:56 35.04538 -97.25623 16077 ft 392 kts 140°
2026-05-04 22:56 35.02597 -97.23245 16833 ft 399 kts 140°
2026-05-04 22:57 35.00617 -97.20833 17539 ft 406 kts 140°
2026-05-04 22:57 34.98601 -97.18394 18274 ft 411 kts 140°
2026-05-04 22:57 34.96528 -97.15981 18957 ft 414 kts 144°
2026-05-04 22:57 34.94296 -97.13728 19609 ft 418 kts 147°
2026-05-04 22:58 34.92004 -97.11511 20256 ft 424 kts 147°
2026-05-04 22:58 34.89685 -97.09245 20899 ft 430 kts 146°
2026-05-04 22:58 34.87354 -97.06926 21529 ft 435 kts 146°
2026-05-04 22:58 34.85036 -97.04593 22141 ft 441 kts 146°
2026-05-04 22:59 34.82666 -97.02192 22755 ft 446 kts 146°
2026-05-04 22:59 34.80265 -96.99754 23355 ft 452 kts 146°
2026-05-04 22:59 34.77841 -96.97292 23803 ft 457 kts 146°
2026-05-04 22:59 34.75391 -96.94805 24293 ft 462 kts 146°
2026-05-04 23:00 34.72908 -96.92287 24745 ft 467 kts 146°
2026-05-04 23:00 34.70405 -96.89752 25042 ft 470 kts 147°
2026-05-04 23:00 34.67929 -96.87243 25026 ft 468 kts 147°
2026-05-04 23:00 34.65438 -96.84717 25039 ft 467 kts 147°
2026-05-04 23:01 34.62947 -96.82194 25053 ft 469 kts 146°
2026-05-04 23:01 34.60444 -96.79657 25048 ft 470 kts 146°
2026-05-04 23:01 34.57952 -96.77128 25015 ft 463 kts 147°
2026-05-04 23:01 34.55484 -96.74641 24811 ft 460 kts 147°
2026-05-04 23:02 34.53848 -96.73001 24770 ft 462 kts 146°
2026-05-04 23:02 34.51371 -96.70496 24770 ft 466 kts 146°
2026-05-04 23:02 34.48881 -96.67955 24773 ft 468 kts 146°
2026-05-04 23:02 34.45603 -96.64579 24735 ft 465 kts 146°
2026-05-04 23:03 34.43161 -96.62052 24493 ft 459 kts 145°
2026-05-04 23:03 34.40753 -96.59554 24265 ft 452 kts 145°
2026-05-04 23:03 34.39176 -96.57921 24115 ft 449 kts 145°
2026-05-04 23:03 34.36029 -96.54665 23784 ft 442 kts 145°
2026-05-04 23:04 34.34486 -96.53071 23569 ft 438 kts 145°
2026-05-04 23:04 34.32183 -96.50695 23115 ft 433 kts 145°
2026-05-04 23:04 34.29895 -96.48339 22491 ft 430 kts 145°
2026-05-04 23:04 34.26900 -96.45257 21970 ft 422 kts 145°
2026-05-04 23:05 34.24683 -96.42974 21721 ft 416 kts 145°
2026-05-04 23:05 34.22483 -96.40714 21469 ft 416 kts 145°
2026-05-04 23:05 34.21018 -96.39211 21319 ft 419 kts 145°
2026-05-04 23:05 34.18780 -96.36919 21099 ft 422 kts 145°
2026-05-04 23:06 34.16550 -96.34633 20834 ft 419 kts 145°
2026-05-04 23:06 34.14344 -96.32368 20515 ft 413 kts 145°
2026-05-04 23:06 34.11468 -96.29416 19868 ft 408 kts 145°
2026-05-04 23:06 34.09306 -96.27201 19347 ft 406 kts 145°
2026-05-04 23:07 34.07187 -96.25026 19123 ft 395 kts 145°
2026-05-04 23:07 34.05812 -96.23614 18958 ft 388 kts 145°
2026-05-04 23:07 34.03796 -96.21546 18838 ft 375 kts 145°
2026-05-04 23:07 34.01826 -96.19527 18813 ft 371 kts 145°
2026-05-04 23:08 33.99184 -96.16825 18826 ft 374 kts 145°
2026-05-04 23:08 33.97875 -96.15484 18817 ft 375 kts 145°
2026-05-04 23:08 33.95893 -96.13458 18806 ft 374 kts 145°
2026-05-04 23:08 33.93907 -96.11439 18805 ft 373 kts 146°
2026-05-04 23:09 33.91917 -96.09454 18808 ft 370 kts 150°
2026-05-04 23:09 33.89689 -96.08168 18828 ft 354 kts 175°
2026-05-04 23:09 33.87266 -96.07896 18688 ft 356 kts 192°
2026-05-04 23:09 33.84827 -96.08497 18488 ft 359 kts 207°
2026-05-04 23:10 33.82488 -96.09535 18240 ft 358 kts 210°
2026-05-04 23:10 33.80183 -96.10650 17969 ft 357 kts 211°
2026-05-04 23:10 33.77885 -96.11764 17700 ft 356 kts 210°
2026-05-04 23:10 33.75581 -96.12860 17436 ft 356 kts 210°
2026-05-04 23:11 33.73277 -96.13933 17179 ft 355 kts 209°
2026-05-04 23:11 33.70971 -96.14990 16923 ft 354 kts 209°
2026-05-04 23:11 33.68671 -96.16034 16670 ft 353 kts 208°
2026-05-04 23:11 33.66399 -96.17057 16419 ft 353 kts 208°
2026-05-04 23:12 33.64109 -96.18086 16180 ft 349 kts 208°
2026-05-04 23:12 33.61857 -96.19103 15842 ft 343 kts 208°
2026-05-04 23:12 33.59650 -96.20106 15242 ft 337 kts 208°
2026-05-04 23:12 33.57540 -96.21042 14936 ft 325 kts 207°
2026-05-04 23:13 33.55413 -96.21867 14470 ft 318 kts 205°
2026-05-04 23:13 33.53359 -96.22616 14058 ft 311 kts 205°
2026-05-04 23:13 33.51305 -96.23360 13629 ft 306 kts 204°
2026-05-04 23:13 33.49302 -96.24097 13140 ft 304 kts 204°
2026-05-04 23:14 33.47308 -96.24837 12816 ft 292 kts 205°
2026-05-04 23:14 33.45559 -96.25893 12319 ft 276 kts 225°
2026-05-04 23:14 33.44101 -96.27377 11606 ft 277 kts 228°
2026-05-04 23:14 33.42663 -96.28921 10917 ft 278 kts 227°
2026-05-04 23:15 33.41217 -96.30469 10238 ft 279 kts 227°
2026-05-04 23:15 33.39761 -96.32006 9553 ft 279 kts 226°
2026-05-04 23:15 33.38297 -96.33533 8828 ft 279 kts 226°
2026-05-04 23:15 33.36830 -96.35047 8125 ft 278 kts 225°
2026-05-04 23:16 33.35362 -96.36552 7414 ft 277 kts 226°
2026-05-04 23:16 33.33918 -96.38025 6746 ft 276 kts 224°
2026-05-04 23:16 33.32460 -96.39506 6051 ft 275 kts 224°
2026-05-04 23:16 35.39455 -97.59657 5874 ft 18 kts 19°
2026-05-04 23:18 35.39456 -97.59657 1300 ft 0 kts 19°
2026-05-04 23:28 35.39451 -97.59658 1300 ft 4 kts 19°
2026-05-04 23:28 35.39427 -97.59668 1299 ft 4 kts 20°
2026-05-04 23:28 35.39405 -97.59683 1299 ft 4 kts 51°
2026-05-04 23:29 35.39397 -97.59707 1299 ft 3 kts 103°
2026-05-04 23:29 35.39397 -97.59708 1299 ft 1 kts 104°
2026-05-04 23:30 35.39397 -97.59707 1299 ft 0 kts 104°
2026-05-04 23:30 35.39397 -97.59704 1299 ft 1 kts 103°
2026-05-04 23:31 35.39395 -97.59697 1299 ft 2 kts 103°
2026-05-04 23:31 35.39388 -97.59641 1299 ft 10 kts 94°
2026-05-04 23:31 35.39377 -97.59575 1299 ft 0 kts 131°
2026-05-04 23:32 35.39347 -97.59547 1299 ft 10 kts 154°
2026-05-04 23:32 35.39311 -97.59534 1298 ft 3 kts 165°
2026-05-04 23:33 35.39273 -97.59526 1297 ft 10 kts 174°
2026-05-04 23:33 35.39257 -97.59523 1297 ft 0 kts 172°
2026-05-04 23:34 35.39255 -97.59523 1296 ft 3 kts 170°
2026-05-04 23:34 35.39220 -97.59448 1297 ft 17 kts 91°
2026-05-04 23:34 35.39223 -97.59285 1296 ft 19 kts 90°
2026-05-04 23:35 35.39223 -97.59118 1294 ft 20 kts 78°
2026-05-04 23:35 35.39327 -97.59063 1296 ft 17 kts 360°
2026-05-04 23:35 35.39460 -97.59065 1296 ft 21 kts 356°
2026-05-04 23:35 35.39610 -97.59073 1296 ft 22 kts
2026-05-04 23:36 35.39758 -97.59069 1299 ft 19 kts
2026-05-04 23:36 35.39907 -97.59063 1296 ft 24 kts 359°
2026-05-04 23:36 35.40076 -97.59062 1297 ft 23 kts
2026-05-04 23:36 35.40234 -97.59064 1297 ft 24 kts 359°
2026-05-04 23:37 35.40380 -97.59033 1296 ft 15 kts 55°
2026-05-04 23:37 35.40380 -97.58909 1300 ft 15 kts 129°
2026-05-04 23:37 35.40203 -97.58894 1298 ft 56 kts 180°
2026-05-04 23:37 35.39588 -97.58898 1294 ft 119 kts 180°
2026-05-04 23:38 35.38599 -97.58919 1307 ft 168 kts 183°
2026-05-04 23:38 35.37337 -97.58996 1591 ft 188 kts 185°
2026-05-04 23:38 35.36043 -97.59291 2252 ft 194 kts 202°
2026-05-04 23:38 35.34752 -97.60007 2623 ft 216 kts 197°
2026-05-04 23:39 35.33179 -97.60218 3002 ft 236 kts 182°
2026-05-04 23:39 35.31553 -97.59824 3768 ft 247 kts 156°
2026-05-04 23:39 35.30233 -97.58399 4537 ft 262 kts 139°
2026-05-04 23:39 35.29006 -97.56687 4992 ft 272 kts 137°
2026-05-04 23:40 35.27758 -97.54931 5604 ft 283 kts 137°
2026-05-04 23:40 35.26419 -97.53095 6213 ft 294 kts 138°
2026-05-04 23:40 35.25031 -97.51247 7028 ft 297 kts 139°
2026-05-04 23:40 35.23603 -97.49390 7862 ft 302 kts 139°
2026-05-04 23:41 35.22143 -97.47525 8724 ft 306 kts 139°
2026-05-04 23:41 35.20647 -97.45636 9605 ft 312 kts 139°
2026-05-04 23:41 35.19124 -97.43722 10444 ft 316 kts 139°
2026-05-04 23:41 35.17581 -97.41794 11307 ft 320 kts 139°
2026-05-04 23:42 35.16010 -97.39840 12163 ft 324 kts 139°
2026-05-04 23:42 35.14437 -97.37891 13003 ft 329 kts 139°
2026-05-04 23:42 35.12818 -97.35889 13846 ft 334 kts 139°
2026-05-04 23:42 35.11176 -97.33861 14650 ft 339 kts 139°
2026-05-04 23:43 35.09469 -97.31759 15041 ft 361 kts 139°
2026-05-04 23:43 35.07637 -97.29506 15321 ft 384 kts 139°
2026-05-04 23:43 35.05736 -97.27160 15988 ft 393 kts 139°
2026-05-04 23:43 35.03802 -97.24766 16759 ft 399 kts 139°
2026-05-04 23:44 35.02510 -97.23167 17255 ft 403 kts 139°
2026-05-04 23:44 35.00517 -97.20712 17963 ft 410 kts 139°
2026-05-04 23:44 34.97829 -97.17418 18852 ft 417 kts 140°
2026-05-04 23:44 34.95659 -97.15044 19547 ft 420 kts 144°
2026-05-04 23:45 34.93379 -97.12795 20228 ft 424 kts 146°
2026-05-04 23:45 34.91057 -97.10544 20878 ft 430 kts 145°
2026-05-04 23:45 34.88737 -97.08214 21515 ft 436 kts 144°
2026-05-04 23:45 34.86407 -97.05817 22131 ft 442 kts 144°
2026-05-04 23:46 34.84848 -97.04198 22522 ft 446 kts 144°
2026-05-04 23:46 34.82475 -97.01729 22752 ft 452 kts 143°
2026-05-04 23:46 34.79319 -96.98443 22744 ft 448 kts 144°
2026-05-04 23:46 34.76953 -96.95983 22736 ft 447 kts 144°
2026-05-04 23:47 34.74577 -96.93523 22740 ft 449 kts 144°
2026-05-04 23:47 34.72198 -96.91068 22746 ft 451 kts 144°
2026-05-04 23:47 34.70600 -96.89422 22798 ft 458 kts 144°
2026-05-04 23:47 34.68145 -96.86897 23225 ft 465 kts 144°
2026-05-04 23:48 34.65666 -96.84347 23837 ft 466 kts 144°
2026-05-04 23:48 34.63196 -96.81805 24445 ft 465 kts 145°
2026-05-04 23:48 34.60719 -96.79259 24698 ft 467 kts 145°
2026-05-04 23:48 34.58237 -96.76710 24744 ft 467 kts 145°
2026-05-04 23:49 34.55758 -96.74166 24742 ft 466 kts 145°
2026-05-04 23:49 34.53284 -96.71628 24735 ft 464 kts 144°
2026-05-04 23:49 34.50881 -96.69163 24557 ft 455 kts 144°
2026-05-04 23:49 34.48471 -96.66692 24139 ft 451 kts 144°
2026-05-04 23:50 34.46089 -96.64256 23616 ft 447 kts 144°
2026-05-04 23:50 34.43718 -96.61834 23070 ft 444 kts 144°
2026-05-04 23:50 34.41369 -96.59437 22492 ft 439 kts 144°
2026-05-04 23:50 34.39051 -96.57072 22076 ft 431 kts 144°
2026-05-04 23:51 34.36780 -96.54759 21826 ft 423 kts 144°
2026-05-04 23:51 34.34541 -96.52483 21567 ft 419 kts 144°
2026-05-04 23:51 34.32318 -96.50224 21320 ft 417 kts 144°
2026-05-04 23:51 34.30119 -96.47992 21061 ft 418 kts 144°
2026-05-04 23:52 34.27894 -96.45733 20813 ft 418 kts 144°
2026-05-04 23:52 34.25666 -96.43471 20575 ft 418 kts 144°
2026-05-04 23:52 34.23441 -96.41212 20334 ft 417 kts 144°
2026-05-04 23:52 34.21223 -96.38962 20104 ft 416 kts 144°
2026-05-04 23:53 34.19033 -96.36738 20004 ft 406 kts 144°
2026-05-04 23:53 34.16910 -96.34581 19918 ft 391 kts 144°
2026-05-04 23:53 34.14878 -96.32515 19716 ft 375 kts 144°
2026-05-04 23:53 34.12897 -96.30509 19232 ft 370 kts 144°
2026-05-04 23:54 34.10932 -96.28523 18933 ft 365 kts 144°
2026-05-04 23:54 34.09018 -96.26591 18845 ft 365 kts 144°
2026-05-04 23:54 34.07053 -96.24611 18822 ft 371 kts 144°
2026-05-04 23:54 34.05058 -96.22599 18794 ft 375 kts 144°
2026-05-04 23:55 34.03060 -96.20583 18798 ft 374 kts 144°
2026-05-04 23:55 34.01064 -96.18567 18798 ft 373 kts 144°
2026-05-04 23:55 33.97084 -96.14548 18796 ft 374 kts 144°
2026-05-04 23:56 33.95076 -96.12527 18799 ft 377 kts 144°
2026-05-04 23:56 33.93101 -96.10544 18784 ft 371 kts 144°
2026-05-04 23:56 33.91072 -96.08751 18775 ft 351 kts 160°
2026-05-04 23:56 33.88847 -96.07946 18596 ft 322 kts 182°
2026-05-04 23:57 33.86686 -96.07958 18357 ft 301 kts 198°
2026-05-04 23:57 33.84730 -96.08567 18119 ft 282 kts 208°
2026-05-04 23:57 33.82922 -96.09374 17835 ft 274 kts 211°
2026-05-04 23:57 33.81162 -96.10204 17567 ft 270 kts 211°
2026-05-04 23:58 33.79421 -96.11028 17295 ft 268 kts 211°
2026-05-04 23:58 33.77709 -96.11832 17041 ft 267 kts 211°
2026-05-04 23:58 33.75984 -96.12633 16784 ft 265 kts 211°
2026-05-04 23:58 33.74264 -96.13426 16540 ft 264 kts 210°
2026-05-04 23:59 33.72550 -96.14213 16289 ft 263 kts 210°
2026-05-04 23:59 33.70827 -96.15001 16024 ft 268 kts 209°
2026-05-04 23:59 33.69040 -96.15819 15789 ft 281 kts 209°
2026-05-04 23:59 33.67192 -96.16659 15486 ft 287 kts 208°
2026-05-05 00:00 33.65320 -96.17506 15191 ft 288 kts 208°
2026-05-05 00:00 33.64077 -96.18067 14992 ft 287 kts 208°
2026-05-05 00:00 33.61606 -96.19160 14579 ft 279 kts 207°
2026-05-05 00:00 33.59808 -96.19895 14267 ft 275 kts 206°
2026-05-05 00:01 33.57969 -96.20639 14023 ft 291 kts 205°
2026-05-05 00:01 33.55931 -96.21476 13693 ft 327 kts 205°
2026-05-05 00:01 33.53739 -96.22368 13301 ft 335 kts 204°
2026-05-05 00:01 33.51536 -96.23252 12923 ft 331 kts 204°
2026-05-05 00:02 33.49398 -96.24107 12562 ft 317 kts 204°
2026-05-05 00:02 33.47347 -96.24927 12240 ft 304 kts 205°
2026-05-05 00:02 33.45376 -96.25719 11936 ft 295 kts 205°
2026-05-05 00:02 33.43472 -96.26486 11651 ft 291 kts 205°
2026-05-05 00:03 33.41563 -96.27257 11367 ft 289 kts 204°
2026-05-05 00:03 33.39666 -96.28023 11073 ft 286 kts 205°
2026-05-05 00:03 33.37788 -96.28779 10781 ft 283 kts 205°
2026-05-05 00:03 33.35938 -96.29524 10500 ft 280 kts 205°
2026-05-05 00:04 33.34097 -96.30265 10213 ft 277 kts 204°
2026-05-05 00:04 33.32293 -96.30991 9967 ft 268 kts 205°
2026-05-05 00:04 33.30554 -96.31689 9624 ft 261 kts 204°
2026-05-05 00:04 33.28861 -96.32374 9158 ft 259 kts 205°
2026-05-05 00:05 33.27151 -96.33081 9053 ft 261 kts 210°
2026-05-05 00:05 33.25717 -96.34302 9007 ft 250 kts 231°
2026-05-05 00:05 33.24616 -96.35891 8998 ft 246 kts 236°
2026-05-05 00:05 33.23587 -96.37519 8990 ft 245 kts 237°
2026-05-05 00:06 33.22567 -96.39134 8969 ft 240 kts 237°
2026-05-05 00:06 33.21580 -96.40677 8796 ft 228 kts 236°
2026-05-05 00:06 33.20780 -96.42234 8602 ft 212 kts 251°
2026-05-05 00:06 33.20289 -96.43839 8396 ft 201 kts 253°
2026-05-05 00:07 33.19826 -96.45374 8172 ft 192 kts 253°
2026-05-05 00:07 33.19386 -96.46818 8026 ft 184 kts 252°
2026-05-05 00:07 33.18950 -96.48236 7808 ft 179 kts 252°
2026-05-05 00:07 33.18522 -96.49615 7601 ft 183 kts 252°
2026-05-05 00:08 33.18130 -96.51164 7407 ft 200 kts 264°
2026-05-05 00:08 33.17994 -96.52777 7373 ft 192 kts 253°
2026-05-05 00:08 33.17481 -96.54216 7194 ft 187 kts 248°
2026-05-05 00:08 33.16951 -96.55625 6945 ft 184 kts 248°
2026-05-05 00:09 33.16441 -96.57015 6729 ft 181 kts 248°
2026-05-05 00:09 33.15943 -96.58407 6408 ft 183 kts 249°
2026-05-05 00:09 33.15466 -96.59770 6089 ft 177 kts 249°
2026-05-05 00:09 33.15010 -96.61096 5764 ft 169 kts 248°
2026-05-05 00:10 33.14580 -96.62368 5429 ft 162 kts 247°
2026-05-05 00:10 33.14171 -96.63593 5078 ft 156 kts 246°
2026-05-05 00:10 33.13778 -96.64779 4740 ft 151 kts 246°
2026-05-05 00:10 33.13404 -96.65915 4405 ft 144 kts 245°
2026-05-05 00:11 33.13044 -96.67013 4049 ft 141 kts 243°
2026-05-05 00:11 33.12694 -96.68084 3694 ft 137 kts 241°
2026-05-05 00:11 33.12351 -96.69136 3358 ft 136 kts 239°
2026-05-05 00:11 33.12016 -96.70166 3024 ft 135 kts 238°
2026-05-05 00:12 33.11665 -96.71234 2623 ft 139 kts 239°
2026-05-05 00:12 33.11324 -96.72285 2545 ft 136 kts 240°
2026-05-05 00:12 33.10999 -96.73294 2464 ft 124 kts 240°
2026-05-05 00:12 33.10673 -96.74294 2492 ft 136 kts 239°
2026-05-05 00:13 33.10333 -96.75342 2480 ft 133 kts 238°
2026-05-05 00:13 33.10003 -96.76364 2479 ft 134 kts 238°
2026-05-05 00:13 33.09663 -96.77411 2480 ft 135 kts 238°
2026-05-05 00:13 33.09334 -96.78433 2475 ft 130 kts 239°
2026-05-05 00:14 33.09016 -96.79419 2461 ft 129 kts 239°
2026-05-05 00:14 33.08701 -96.80403 2457 ft 125 kts 238°
2026-05-05 00:14 33.08395 -96.81366 2443 ft 125 kts 239°
2026-05-05 00:14 33.08102 -96.82391 2227 ft 135 kts 240°
2026-05-05 00:15 33.07821 -96.83423 2190 ft 128 kts 240°
2026-05-05 00:15 33.07544 -96.84442 2081 ft 134 kts 242°
2026-05-05 00:15 33.07365 -96.85592 2050 ft 143 kts 253°
2026-05-05 00:15 33.07084 -96.86647 2063 ft 127 kts 234°
2026-05-05 00:16 33.06692 -96.87571 2049 ft 125 kts 233°
2026-05-05 00:16 33.06171 -96.88350 2037 ft 117 kts 194°
2026-05-05 00:16 33.05404 -96.88478 2065 ft 112 kts 188°
2026-05-05 00:16 33.04638 -96.88632 2089 ft 112 kts 188°
2026-05-05 00:17 33.03875 -96.88787 2091 ft 111 kts 190°
2026-05-05 00:17 33.03113 -96.88944 2066 ft 113 kts 191°
2026-05-05 00:17 33.02333 -96.89104 2071 ft 114 kts 191°
2026-05-05 00:17 33.01547 -96.89266 2075 ft 116 kts 188°
2026-05-05 00:18 33.00756 -96.89430 2067 ft 114 kts 189°
2026-05-05 00:18 33.00020 -96.89583 2064 ft 108 kts 189°
2026-05-05 00:18 32.99270 -96.89739 2071 ft 111 kts 190°
2026-05-05 00:18 32.98492 -96.89902 2018 ft 117 kts 190°
2026-05-05 00:19 32.97688 -96.90074 1910 ft 116 kts 191°
2026-05-05 00:19 32.96905 -96.90287 1773 ft 119 kts 194°
2026-05-05 00:19 32.96084 -96.90545 1770 ft 123 kts 197°
2026-05-05 00:19 32.95255 -96.90843 1855 ft 128 kts 195°
2026-05-05 00:20 32.94392 -96.91121 1836 ft 127 kts 193°
2026-05-05 00:20 32.93529 -96.91342 1866 ft 134 kts 183°
2026-05-05 00:20 32.92609 -96.91354 2262 ft 129 kts 182°
2026-05-05 00:20 32.91716 -96.91302 2164 ft 133 kts 176°
2026-05-05 00:21 32.90798 -96.91065 2155 ft 138 kts 172°
2026-05-05 00:21 32.89901 -96.90586 1909 ft 149 kts 146°
2026-05-05 00:21 32.89204 -96.89659 1716 ft 152 kts 141°
2026-05-05 00:21 32.88480 -96.88762 1531 ft 146 kts 142°
2026-05-05 00:22 32.87765 -96.87930 1275 ft 142 kts 143°
2026-05-05 00:22 32.87061 -96.87110 1056 ft 141 kts 142°
2026-05-05 00:22 32.86315 -96.86324 745 ft 144 kts 142°
2026-05-05 00:22 32.85610 -96.85515 526 ft 136 kts 141°
2026-05-05 00:23 32.84994 -96.84811 489 ft 111 kts 136°
2026-05-05 00:23 32.84542 -96.84312 495 ft 61 kts 132°
2026-05-05 00:23 32.84368 -96.84106 497 ft 32 kts 136°
2026-05-05 00:23 32.84230 -96.83963 495 ft 11 kts 155°
2026-05-05 00:24 32.84173 -96.83976 496 ft 8 kts 210°
2026-05-05 00:24 32.84164 -96.84017 495 ft 0 kts 315°
2026-05-05 00:24 32.84181 -96.84055 486 ft 15 kts 299°
2026-05-05 00:24 32.84269 -96.84170 496 ft 21 kts 314°
2026-05-05 00:25 32.84328 -96.84251 494 ft 4 kts 309°
2026-05-05 00:25 32.84333 -96.84256 489 ft 3 kts 319°
2026-05-05 00:25 32.84380 -96.84303 490 ft 14 kts 320°
2026-05-05 00:25 32.84448 -96.84384 494 ft 14 kts 313°
2026-05-05 00:26 32.84514 -96.84466 495 ft 13 kts 314°
2026-05-05 00:26 32.84531 -96.84488 491 ft 1 kts 310°
2026-05-05 00:26 32.84553 -96.84514 494 ft 14 kts 314°
2026-05-05 00:26 32.84581 -96.84632 491 ft 18 kts 278°
2026-05-05 00:27 32.84615 -96.84745 488 ft 8 kts 295°
2026-05-05 00:27 32.84618 -96.84752 483 ft 0 kts 296°